When you browse on this site, cookies collect data to enhance your experience and personalize the content and advertising you see.
Visit our Privacy Policy to learn more. By continuing to use the site, you agree to this use of cookies and data.
  • In Portugal
  • List of Countries
  • For 7 days
  • Water Temperature
  • Weather Map
  • Weather Widgets
  • user-avatar
    Login

    Hourly Weather Galata

    Today, 1 April, Wednesday

    Time Temperature Precipitation Wind Pressure Humidity
    00:00 0°C° 0 mm 5 mps 759 mmHg 52%
    01:00 -1°C° 0 mm 6 mps 759 mmHg 51%
    02:00 -1°C° 0 mm 6 mps 759 mmHg 50%
    03:00 -1°C° 0 mm 6 mps 759 mmHg 53%
    04:00 -1°C° 0 mm 7 mps 759 mmHg 57%
    05:00 -1°C° 0 mm 7 mps 759 mmHg 60%
    06:00 -1°C° 0 mm 7 mps 759 mmHg 61%
    07:00 0°C° 0 mm 7 mps 759 mmHg 61%
    08:00 +2°C° 0 mm 7 mps 759 mmHg 62%
    09:00 +2°C° 0.1 mm 7 mps 759 mmHg 69%
    10:00 +2°C° 0.1 mm 7 mps 759 mmHg 76%
    11:00 +2°C° 0.1 mm 7 mps 759 mmHg 83%
    12:00 +2°C° 0.2 mm 7 mps 759 mmHg 82%
    13:00 +2°C° 0.2 mm 7 mps 759 mmHg 80%
    14:00 +2°C° 0.2 mm 7 mps 759 mmHg 79%
    15:00 +3°C° 0 mm 7 mps 758 mmHg 75%
    16:00 +3°C° 0 mm 7 mps 758 mmHg 71%
    17:00 +3°C° 0 mm 7 mps 758 mmHg 67%
    18:00 +2°C° 0 mm 6 mps 758 mmHg 68%
    19:00 +1°C° 0 mm 6 mps 758 mmHg 70%
    20:00 -1°C° 0 mm 6 mps 758 mmHg 72%
    21:00 +1°C° 0 mm 6 mps 758 mmHg 71%
    22:00 +1°C° 0 mm 6 mps 757 mmHg 70%
    23:00 +1°C° 0 mm 5 mps 757 mmHg 69%

    Tomorrow, 2 April, Thursday

    Time Temperature Precipitation Wind Pressure Humidity
    00:00 +1°C° 0 mm 5 mps 757 mmHg 70%
    01:00 0°C° 0 mm 5 mps 757 mmHg 72%
    02:00 0°C° 0 mm 5 mps 757 mmHg 73%
    03:00 0°C° 0 mm 5 mps 757 mmHg 73%
    04:00 0°C° 0 mm 5 mps 756 mmHg 72%
    05:00 0°C° 0 mm 5 mps 756 mmHg 72%
    06:00 +1°C° 0 mm 5 mps 756 mmHg 69%
    07:00 +2°C° 0 mm 5 mps 756 mmHg 67%
    08:00 +4°C° 0 mm 6 mps 756 mmHg 64%
    09:00 +4°C° 0 mm 6 mps 756 mmHg 65%
    10:00 +5°C° 0 mm 7 mps 756 mmHg 66%
    11:00 +5°C° 0 mm 7 mps 756 mmHg 67%
    12:00 +6°C° 0 mm 7 mps 755 mmHg 62%
    13:00 +8°C° 0 mm 7 mps 755 mmHg 57%
    14:00 +8°C° 0 mm 7 mps 755 mmHg 53%
    15:00 +8°C° 0 mm 7 mps 755 mmHg 53%
    16:00 +6°C° 0 mm 7 mps 754 mmHg 54%
    17:00 +5°C° 0 mm 7 mps 754 mmHg 54%
    18:00 +4°C° 0 mm 6 mps 754 mmHg 59%
    19:00 +3°C° 0 mm 5 mps 755 mmHg 65%
    20:00 +3°C° 0 mm 4 mps 755 mmHg 70%
    21:00 +1°C° 0 mm 4 mps 755 mmHg 72%
    22:00 +2°C° 0 mm 3 mps 755 mmHg 75%
    23:00 +1°C° 0 mm 3 mps 755 mmHg 77%

    Day after tomorrow, 3 April, Friday

    Time Temperature Precipitation Wind Pressure Humidity
    00:00 +1°C° 0 mm 3 mps 755 mmHg 76%
    01:00 +1°C° 0 mm 3 mps 755 mmHg 76%
    02:00 +1°C° 0 mm 3 mps 755 mmHg 75%
    03:00 +1°C° 0 mm 2 mps 755 mmHg 73%
    04:00 +1°C° 0 mm 2 mps 755 mmHg 71%
    05:00 +1°C° 0 mm 2 mps 755 mmHg 70%
    06:00 +3°C° 0 mm 2 mps 755 mmHg 63%
    07:00 +4°C° 0 mm 2 mps 755 mmHg 57%
    08:00 +7°C° 0 mm 1 mps 755 mmHg 51%
    09:00 +8°C° 0 mm 1 mps 755 mmHg 46%
    10:00 +10°C° 0 mm 1 mps 755 mmHg 42%
    11:00 +12°C° 0 mm 1 mps 755 mmHg 38%
    12:00 +12°C° 0 mm 2 mps 755 mmHg 39%
    13:00 +13°C° 0 mm 2 mps 755 mmHg 40%
    14:00 +12°C° 0 mm 3 mps 755 mmHg 41%
    15:00 +11°C° 0 mm 3 mps 755 mmHg 44%
    16:00 +11°C° 0 mm 3 mps 755 mmHg 47%
    17:00 +10°C° 0 mm 3 mps 755 mmHg 51%
    18:00 +9°C° 0 mm 3 mps 755 mmHg 55%
    19:00 +7°C° 0 mm 3 mps 756 mmHg 59%
    20:00 +5°C° 0 mm 3 mps 756 mmHg 63%
    21:00 +5°C° 0 mm 3 mps 756 mmHg 65%
    22:00 +4°C° 0 mm 3 mps 757 mmHg 68%
    23:00 +5°C° 0 mm 2 mps 757 mmHg 70%

    4 April, Saturday

    Time Temperature Precipitation Wind Pressure Humidity
    00:00 +5°C° 0 mm 2 mps 757 mmHg 72%
    01:00 +5°C° 0 mm 2 mps 757 mmHg 74%
    02:00 +6°C° 0 mm 1 mps 757 mmHg 75%
    03:00 +6°C° 0 mm 1 mps 757 mmHg 76%
    04:00 +6°C° 0 mm 1 mps 757 mmHg 77%
    05:00 +6°C° 0 mm 1 mps 757 mmHg 78%
    06:00 +7°C° 0 mm 1 mps 758 mmHg 74%
    07:00 +8°C° 0 mm 1 mps 758 mmHg 71%
    08:00 +10°C° 0 mm 1 mps 758 mmHg 67%
    09:00 +11°C° 0 mm 1 mps 759 mmHg 63%
    10:00 +13°C° 0 mm 1 mps 759 mmHg 60%
    11:00 +14°C° 0 mm 2 mps 759 mmHg 56%
    12:00 +14°C° 0 mm 2 mps 759 mmHg 56%
    13:00 +14°C° 0 mm 2 mps 759 mmHg 57%
    14:00 +14°C° 0 mm 3 mps 759 mmHg 57%
    15:00 +13°C° 0 mm 3 mps 759 mmHg 58%
    16:00 +12°C° 0 mm 3 mps 760 mmHg 60%
    17:00 +12°C° 0 mm 3 mps 760 mmHg 62%
    18:00 +10°C° 0 mm 2 mps 760 mmHg 67%
    19:00 +8°C° 0 mm 2 mps 761 mmHg 72%
    20:00 +7°C° 0 mm 2 mps 761 mmHg 77%
    21:00 +7°C° 0 mm 2 mps 762 mmHg 76%
    22:00 +6°C° 0 mm 2 mps 762 mmHg 75%
    23:00 +6°C° 0 mm 2 mps 762 mmHg 75%

    5 April, Sunday

    Time Temperature Precipitation Wind Pressure Humidity
    00:00 +6°C° 0 mm 2 mps 762 mmHg 74%
    01:00 +5°C° 0 mm 2 mps 762 mmHg 73%
    02:00 +4°C° 0 mm 3 mps 762 mmHg 73%
    03:00 +4°C° 0 mm 3 mps 762 mmHg 71%
    04:00 +4°C° 0 mm 3 mps 763 mmHg 69%
    05:00 +4°C° 0 mm 4 mps 763 mmHg 67%
    06:00 +5°C° 0 mm 5 mps 763 mmHg 64%
    07:00 +7°C° 0 mm 6 mps 763 mmHg 61%
    08:00 +8°C° 0 mm 7 mps 763 mmHg 58%
    09:00 +10°C° 0 mm 8 mps 764 mmHg 55%
    10:00 +11°C° 0 mm 8 mps 764 mmHg 52%
    11:00 +12°C° 0 mm 9 mps 764 mmHg 49%
    12:00 +12°C° 0 mm 10 mps 764 mmHg 50%
    13:00 +13°C° 0 mm 10 mps 763 mmHg 51%
    14:00 +13°C° 0 mm 11 mps 763 mmHg 51%
    15:00 +12°C° 0 mm 11 mps 763 mmHg 53%
    16:00 +11°C° 0 mm 11 mps 762 mmHg 55%
    17:00 +9°C° 0 mm 11 mps 762 mmHg 56%
    18:00 +8°C° 0 mm 11 mps 762 mmHg 57%
    19:00 +7°C° 0 mm 11 mps 762 mmHg 58%
    20:00 +7°C° 0 mm 10 mps 762 mmHg 59%
    21:00 +7°C° 0 mm 10 mps 763 mmHg 61%
    22:00 +7°C° 0 mm 11 mps 763 mmHg 63%
    23:00 +7°C° 0 mm 11 mps 763 mmHg 65%

    6 April, Monday

    Time Temperature Precipitation Wind Pressure Humidity
    00:00 +6°C° 0 mm 11 mps 763 mmHg 65%
    01:00 +5°C° 0 mm 12 mps 763 mmHg 65%
    02:00 +5°C° 0 mm 13 mps 763 mmHg 65%
    03:00 +4°C° 0 mm 13 mps 763 mmHg 65%
    04:00 +4°C° 0 mm 13 mps 763 mmHg 65%
    05:00 +3°C° 0 mm 13 mps 764 mmHg 65%
    06:00 +4°C° 0 mm 13 mps 764 mmHg 63%
    07:00 +4°C° 0 mm 13 mps 764 mmHg 61%
    08:00 +4°C° 0 mm 13 mps 765 mmHg 59%
    09:00 +5°C° 0 mm 14 mps 765 mmHg 57%
    10:00 +5°C° 0 mm 14 mps 765 mmHg 55%
    11:00 +6°C° 0 mm 14 mps 766 mmHg 53%
    12:00 +7°C° 0 mm 13 mps 766 mmHg 53%
    13:00 +7°C° 0 mm 13 mps 766 mmHg 53%
    14:00 +7°C° 0 mm 13 mps 766 mmHg 53%
    15:00 +5°C° 0 mm 13 mps 766 mmHg 54%
    16:00 +5°C° 0 mm 13 mps 766 mmHg 55%
    17:00 +4°C° 0 mm 12 mps 766 mmHg 56%
    18:00 +4°C° 0 mm 12 mps 767 mmHg 57%
    19:00 +3°C° 0 mm 12 mps 767 mmHg 58%
    20:00 +2°C° 0 mm 11 mps 767 mmHg 59%
    21:00 +3°C° 0 mm 11 mps 767 mmHg 59%
    22:00 +3°C° 0 mm 11 mps 767 mmHg 60%
    23:00 +3°C° 0 mm 11 mps 768 mmHg 60%
    Show more